Simultaneous Nadir Overpasses (SNOs) Predictions

Prediction of SNOs between NOAA-20 and NOAA-19 Satellite Orbit:

Table of predicted SNOs for the next 14.0 days since TLE Epoch: 7/24/2020
Index Date (NOAA-20) Time (NOAA-20) Lat,Lon (NOAA-20) SZA (NOAA-20 ) Date (NOAA-19) Time (NOAA-19) Lat,Lon (NOAA-19) SZA (NOAA-19 ) Distance(km) Time Diff (sec)
1 08/07/2020 04:34:57 79.15, 79.68 64.68 08/07/2020 04:33:47 79.18, 79.68 64.74 3.27 70
2 08/07/2020 05:25:42 -79.17,-113.11 115.29 08/07/2020 05:24:50 -79.17,-113.18 115.26 1.56 52
3 08/07/2020 06:16:28 79.19, 54.01 64.76 08/07/2020 06:15:48 79.17, 54.06 64.76 2.91 40
4 08/07/2020 07:07:12 -79.17,-138.52 115.27 08/07/2020 07:06:50 -79.19,-138.53 115.24 1.82 22
5 08/07/2020 07:57:57 79.20, 28.60 64.79 08/07/2020 07:57:47 79.19, 28.71 64.77 2.63 10
6 08/07/2020 08:48:41 -79.18,-163.93 115.24 08/07/2020 08:48:49 -79.21,-163.89 115.22 3.20 8
7 08/07/2020 09:39:27 79.20, 3.19 64.82 08/07/2020 09:39:47 79.20, 3.36 64.79 3.50 20
8 08/07/2020 10:30:12 -79.22, 170.41 115.16 08/07/2020 10:30:50 -79.19, 170.49 115.20 3.38 38
9 08/07/2020 11:20:57 79.21, -22.22 64.85 08/07/2020 11:21:48 79.19, -22.26 64.81 2.27 51
10 08/07/2020 12:11:42 -79.22, 145.00 115.13 08/07/2020 12:12:50 -79.21, 145.13 115.19 3.28 68
